Weather History for Concord, NH

Change the Weather History Date:

Tuesday, January 14, 2014

  Actual Average Record
Temperature  
Mean Temperature 40 °F 20 °F  
Max Temperature 44 °F 30 °F 66 °F (1932)
Min Temperature 35 °F 10 °F -28 °F (1957)
Degree Days  
Heating Degree Days 25 45  
Month to date heating degree days 629 620  
Since 1 July heating degree days 3424 3366  
Cooling Degree Days 0 0  
Month to date cooling degree days 0 0  
Year to date cooling degree days 0 0  
Moisture  
Dew Point 39 °F    
Average Humidity 87    
Maximum Humidity 100    
Minimum Humidity 73    
Precipitation  
Precipitation 0.60 in 0.09 in 1.10 in (1978)
Month to date precipitation 2.83 1.21  
Year to date precipitation 2.83 1.21  
Snow  
Snow 0.00 in 0.60 in 10.00 in (2008)
Month to date snowfall 8.8 8.1  
Since 1 July snowfall 28.9 25.2  
Snow Depth 8.00 in    
Sea Level Pressure  
Sea Level Pressure 29.71 in    
Wind  
Wind Speed 5 mph (SW)    
Max Wind Speed 12 mph    
Max Gust Speed 18 mph    
Visibility 4 miles    
Events Fog , Rain    
T = Trace of Precipitation, MM = Missing Value Source: NWS Daily Summary

Daily Weather History Graph

Daily Weather History Graph

Search for Another Location

Airport:

Trip Planner

Search our weather history database for the weather conditions in past years. The results will help you decide how hot, cold, wet, or windy it might be!

Date:

Astronomy

Jan. 14, 2014 Rise Set
Actual Time 7:15 AM EST 4:35 PM EST
Civil Twilight 6:43 AM EST 5:06 PM EST
Nautical Twilight 6:08 AM EST 5:41 PM EST
Astronomical Twilight 5:34 AM EST 6:16 PM EST
Moon 3:38 PM EST (1/14) 5:47 AM EST (1/14)
Length of Visible Light 10h 22m
Length of Day
9h 19m
Waxing Gibbous, 98% of the Moon is Illuminated
Jan 14
Waxing Gibbous
Jan 15
Full
Jan 24
Last Quarter
Jan 30
New
Feb 6
First Quarter

Hourly Weather History & Observations

Time (EST) Temp. Windchill Dew Point Humidity Pressure Visibility Wind Dir Wind Speed Gust Speed Precip Events Conditions
12:51 AM 42.1 °F - 35.1 °F 76% 29.85 in 10.0 mi Calm Calm - N/A   Clear
1:51 AM 41.0 °F 38.0 °F 35.1 °F 79% 29.85 in 10.0 mi SSE 4.6 mph - N/A   Clear
2:51 AM 41.0 °F 38.0 °F 35.1 °F 79% 29.83 in 10.0 mi South 4.6 mph - N/A   Clear
3:51 AM 41.0 °F 36.4 °F 36.0 °F 82% 29.82 in 10.0 mi SSE 6.9 mph - N/A   Clear
4:51 AM 42.1 °F 37.7 °F 37.0 °F 82% 29.78 in 10.0 mi South 6.9 mph - N/A   Clear
5:51 AM 41.0 °F 36.4 °F 37.0 °F 86% 29.79 in 10.0 mi South 6.9 mph - N/A   Mostly Cloudy
6:51 AM 42.1 °F 37.7 °F 37.9 °F 85% 29.78 in 10.0 mi SSE 6.9 mph - N/A   Mostly Cloudy
7:51 AM 42.1 °F 38.4 °F 39.0 °F 89% 29.79 in 10.0 mi South 5.8 mph - N/A   Overcast
8:51 AM 43.0 °F 39.5 °F 39.0 °F 86% 29.81 in 10.0 mi South 5.8 mph - 0.00 in Rain Light Rain
9:51 AM 44.1 °F 40.1 °F 39.0 °F 82% 29.78 in 10.0 mi South 6.9 mph - 0.00 in Rain Light Rain
10:23 AM 43.0 °F 38.2 °F 39.0 °F 86% 29.77 in 10.0 mi SSE 8.1 mph - 0.00 in Rain Light Rain
10:51 AM 42.1 °F 37.7 °F 39.9 °F 92% 29.78 in 8.0 mi SSE 6.9 mph - 0.01 in Rain Light Rain
11:40 AM 42.1 °F 37.7 °F 42.1 °F 100% 29.75 in 4.0 mi SSE 6.9 mph - 0.02 in Rain Light Rain
11:51 AM 42.1 °F 39.2 °F 42.1 °F 100% 29.75 in 4.0 mi South 4.6 mph - 0.03 in Rain Light Rain
12:12 PM 42.1 °F 39.2 °F 42.1 °F 100% 29.74 in 3.0 mi SSE 4.6 mph - 0.00 in Rain Light Rain
12:47 PM 42.8 °F 41.1 °F 42.8 °F 100% 29.73 in 2.5 mi SE 3.5 mph - 0.01 in Rain Light Rain
12:51 PM 43.0 °F 41.3 °F 42.1 °F 97% 29.74 in 2.0 mi SE 3.5 mph - 0.02 in Rain Light Rain
1:03 PM 42.1 °F 40.2 °F 42.1 °F 100% 29.73 in 1.8 mi SE 3.5 mph - 0.00 in Rain Light Rain
1:11 PM 42.1 °F 39.2 °F 42.1 °F 100% 29.73 in 2.0 mi SSE 4.6 mph - 0.00 in Rain Light Rain
1:30 PM 43.0 °F - 42.1 °F 97% 29.71 in 2.0 mi Calm Calm - 0.02 in Rain Light Rain
1:40 PM 42.1 °F 39.2 °F 42.1 °F 100% 29.71 in 1.2 mi SSE 4.6 mph - 0.03 in Rain Light Rain
1:51 PM 42.1 °F 39.2 °F 42.1 °F 100% 29.72 in 1.2 mi SSE 4.6 mph - 0.04 in Rain Light Rain
1:54 PM 42.1 °F 39.2 °F 42.1 °F 100% 29.71 in 2.0 mi SSE 4.6 mph - 0.00 in Rain Light Rain
2:01 PM 42.1 °F 39.2 °F 42.1 °F 100% 29.71 in 1.2 mi SSE 4.6 mph - 0.01 in Rain Light Rain
2:14 PM 42.1 °F 39.2 °F 42.1 °F 100% 29.71 in 0.8 mi SE 4.6 mph - 0.02 in Rain Light Rain
2:35 PM 42.1 °F - 42.1 °F 100% 29.70 in 0.5 mi Calm Calm - 0.03 in Fog , Rain Light Rain
2:51 PM 42.1 °F 40.2 °F 42.1 °F 100% 29.71 in 1.0 mi SE 3.5 mph - 0.06 in Rain Light Rain
2:56 PM 42.1 °F 40.2 °F 42.1 °F 100% 29.70 in 0.8 mi SE 3.5 mph - 0.01 in Rain Light Rain
3:12 PM 42.1 °F - 42.1 °F 100% 29.69 in 1.0 mi Calm Calm - 0.03 in Rain Light Rain
3:24 PM 41.0 °F 39.0 °F 41.0 °F 100% 29.68 in 0.2 mi ENE 3.5 mph - 0.04 in Fog , Rain Light Rain
3:29 PM 41.0 °F - 41.0 °F 100% 29.69 in 0.2 mi Calm Calm - 0.04 in Fog , Rain Light Rain
3:36 PM 42.1 °F - 42.1 °F 100% 29.68 in 0.2 mi Calm Calm - 0.05 in Fog , Rain Light Rain
3:51 PM 41.0 °F - 41.0 °F 100% 29.69 in 0.2 mi Calm Calm - 0.06 in Fog , Rain Light Rain
4:34 PM 39.9 °F - 39.9 °F 100% 29.68 in 0.5 mi Calm Calm - 0.04 in Fog , Rain Light Rain
4:39 PM 39.9 °F - 39.9 °F 100% 29.68 in 0.2 mi Calm Calm - 0.05 in Fog , Rain Light Rain
4:51 PM 39.0 °F - 39.0 °F 100% 29.68 in 0.2 mi Calm Calm - 0.07 in Fog , Rain Rain
5:09 PM 39.0 °F 36.8 °F 39.0 °F 100% 29.67 in 0.2 mi NW 3.5 mph - 0.02 in Fog , Rain Rain
5:47 PM 37.4 °F 31.4 °F 37.4 °F 100% 29.67 in 0.5 mi NW 8.1 mph - 0.08 in Fog , Rain Rain
5:51 PM 37.9 °F 32.1 °F 37.9 °F 100% 29.69 in 0.5 mi NW 8.1 mph - 0.09 in Fog , Rain Rain
5:58 PM 37.9 °F 32.1 °F 37.9 °F 100% 29.67 in 1.5 mi NW 8.1 mph - 0.01 in Rain Light Rain
6:05 PM 37.9 °F 32.1 °F 37.9 °F 100% 29.66 in 2.0 mi NNW 8.1 mph - 0.02 in Rain Rain
6:21 PM 37.9 °F 32.7 °F 37.9 °F 100% 29.65 in 2.0 mi NW 6.9 mph - 0.05 in Rain Light Rain
6:29 PM 37.0 °F 31.6 °F 37.0 °F 100% 29.65 in 1.5 mi NW 6.9 mph - 0.05 in Rain Light Rain
6:36 PM 37.0 °F 31.0 °F 37.0 °F 100% 29.65 in 1.0 mi WNW 8.1 mph - 0.05 in Rain Light Rain
6:51 PM 37.0 °F 31.6 °F 37.0 °F 100% 29.66 in 1.0 mi NW 6.9 mph - 0.06 in Rain Light Rain
7:00 PM 37.0 °F 31.6 °F 37.0 °F 100% 29.64 in 0.8 mi NW 6.9 mph - 0.02 in Rain Light Rain
7:09 PM 37.0 °F 31.0 °F 37.0 °F 100% 29.65 in 1.5 mi NW 8.1 mph - 0.03 in Rain Light Rain
7:19 PM 37.0 °F 31.6 °F 37.0 °F 100% 29.66 in 2.5 mi NW 6.9 mph - 0.04 in Rain Light Rain
7:28 PM 37.9 °F 33.5 °F 37.9 °F 100% 29.66 in 2.5 mi NW 5.8 mph - 0.05 in Rain Light Rain
7:39 PM 37.0 °F 32.4 °F 37.0 °F 100% 29.67 in 3.0 mi NW 5.8 mph - 0.06 in Rain Light Rain
7:46 PM 37.4 °F 32.8 °F 37.4 °F 100% 29.66 in 2.5 mi NW 5.8 mph - 0.07 in Rain Light Rain
7:51 PM 37.0 °F 32.4 °F 37.0 °F 100% 29.68 in 2.5 mi NW 5.8 mph - 0.08 in Rain Rain
8:03 PM 37.9 °F 32.7 °F 37.9 °F 100% 29.66 in 4.0 mi NNW 6.9 mph - 0.02 in Rain Light Rain
8:51 PM 37.0 °F 33.3 °F 37.0 °F 100% 29.66 in 5.0 mi NW 4.6 mph - 0.03 in Rain Light Rain
9:15 PM 37.0 °F 34.5 °F 37.0 °F 100% 29.63 in 1.8 mi ENE 3.5 mph - 0.00 in Rain Light Rain
9:20 PM 37.0 °F 34.5 °F 37.0 °F 100% 29.62 in 1.0 mi ENE 3.5 mph - 0.00 in Rain Light Rain
9:36 PM 35.1 °F 32.2 °F 35.1 °F 100% 29.63 in 0.5 mi WNW 3.5 mph - 0.00 in Fog Fog
9:45 PM 35.6 °F 30.7 °F 35.6 °F 100% 29.64 in 1.2 mi WNW 5.8 mph - 0.00 in   Mostly Cloudy
9:48 PM 37.4 °F 32.1 °F 37.4 °F 100% 29.65 in 2.0 mi West 6.9 mph - 0.00 in   Mostly Cloudy
9:51 PM 37.0 °F 31.0 °F 36.0 °F 96% 29.67 in 2.5 mi West 8.1 mph - 0.00 in   Mostly Cloudy
9:58 PM 37.0 °F 32.4 °F 37.0 °F 100% 29.68 in 3.0 mi West 5.8 mph - N/A   Overcast
10:10 PM 37.0 °F 33.3 °F 37.0 °F 100% 29.69 in 2.0 mi WSW 4.6 mph - 0.00 in Rain Light Rain
10:22 PM 37.9 °F 34.4 °F 37.9 °F 100% 29.70 in 5.0 mi West 4.6 mph - 0.00 in Rain Light Rain
10:51 PM 37.9 °F 32.7 °F 37.0 °F 97% 29.73 in 7.0 mi WNW 6.9 mph - 0.01 in Rain Light Rain
11:21 PM 37.9 °F 35.5 °F 37.0 °F 97% 29.71 in 9.0 mi NW 3.5 mph - 0.03 in Rain Light Rain
11:51 PM 37.9 °F - 37.0 °F 97% 29.74 in 10.0 mi Calm Calm - 0.04 in Rain Light Rain